Time,TemperatureF,DewpointF,PressureIn,WindDirection,WindDirectionDegrees,WindSpeedMPH,WindSpeedGustMPH,Humidity,HourlyPrecipIn,Conditions,Clouds,dailyrainin,SolarRadiationWatts/m^2,SoftwareType,DateUTC
2013-09-26 00:22:00,48.0,43.0,-100.00,SSE,148,3.0,9.0,84,0.00,,,0.00,0.000000,,2013-09-26 08:22:00,
2013-09-26 00:32:00,48.0,43.0,-100.00,SSE,148,3.0,9.0,84,0.00,,,0.00,0.000000,,2013-09-26 08:32:00,
2013-09-26 00:42:00,48.0,43.0,-100.00,SSE,148,3.0,9.0,84,0.00,,,0.00,0.000000,,2013-09-26 08:42:00,
2013-09-26 00:52:00,48.0,43.0,-100.00,SSE,148,3.0,9.0,84,0.00,,,0.00,0.000000,,2013-09-26 08:52:00,
2013-09-26 01:22:00,47.0,44.0,-100.00,SE,135,6.0,10.0,89,0.00,,,-99.99,0.000000,,2013-09-26 09:22:00,
2013-09-26 01:33:00,47.0,44.0,-100.00,SE,135,6.0,10.0,89,0.00,,,-99.99,0.000000,,2013-09-26 09:33:00,
2013-09-26 01:43:00,47.0,44.0,-100.00,SE,135,6.0,10.0,89,0.00,,,-99.99,0.000000,,2013-09-26 09:43:00,
2013-09-26 01:53:00,47.0,44.0,-100.00,SE,135,6.0,10.0,89,0.00,,,-99.99,0.000000,,2013-09-26 09:53:00,
2013-09-26 02:23:00,47.0,45.0,-100.00,SE,136,5.0,9.0,93,0.03,,,0.03,0.000000,,2013-09-26 10:23:00,
2013-09-26 02:32:00,47.0,45.0,-100.00,SE,136,5.0,9.0,93,0.03,,,0.03,0.000000,,2013-09-26 10:32:00,
2013-09-26 02:42:00,47.0,45.0,-100.00,SE,136,5.0,9.0,93,0.03,,,0.03,0.000000,,2013-09-26 10:42:00,
2013-09-26 02:53:00,47.0,45.0,-100.00,SE,136,5.0,9.0,93,0.03,,,0.03,0.000000,,2013-09-26 10:53:00,
2013-09-26 03:22:00,47.0,46.0,-100.00,SE,129,7.0,13.0,95,0.04,,,0.07,0.000000,,2013-09-26 11:22:00,
2013-09-26 03:33:00,47.0,46.0,-100.00,SE,129,7.0,13.0,95,0.04,,,0.07,0.000000,,2013-09-26 11:33:00,
2013-09-26 03:42:00,47.0,46.0,-100.00,SE,129,7.0,13.0,95,0.04,,,0.07,0.000000,,2013-09-26 11:42:00,
2013-09-26 03:52:00,47.0,46.0,-100.00,SE,129,7.0,13.0,95,0.04,,,0.07,0.000000,,2013-09-26 11:52:00,
2013-09-26 04:22:00,47.0,46.0,-100.00,SE,133,5.0,11.0,97,0.02,,,0.09,0.000000,,2013-09-26 12:22:00,
2013-09-26 04:32:00,47.0,46.0,-100.00,SE,133,5.0,11.0,97,0.02,,,0.09,0.000000,,2013-09-26 12:32:00,
2013-09-26 04:42:00,47.0,46.0,-100.00,SE,133,5.0,11.0,97,0.02,,,0.09,0.000000,,2013-09-26 12:42:00,
2013-09-26 04:52:00,47.0,46.0,-100.00,SE,133,5.0,11.0,97,0.02,,,0.09,0.000000,,2013-09-26 12:52:00,
2013-09-26 05:22:00,47.0,46.0,-100.00,SSE,147,4.0,10.0,96,0.03,,,0.12,0.000000,,2013-09-26 13:22:00,
2013-09-26 05:32:00,47.0,46.0,-100.00,SSE,147,4.0,10.0,96,0.03,,,0.12,0.000000,,2013-09-26 13:32:00,
2013-09-26 05:42:00,47.0,46.0,-100.00,SSE,147,4.0,10.0,96,0.03,,,0.12,0.000000,,2013-09-26 13:42:00,
2013-09-26 05:52:00,47.0,46.0,-100.00,SSE,147,4.0,10.0,96,0.03,,,0.12,0.000000,,2013-09-26 13:52:00,
2013-09-26 06:22:00,47.0,46.0,-100.00,SE,142,6.0,12.0,97,0.04,,,0.16,0.000000,,2013-09-26 14:22:00,
2013-09-26 06:32:00,47.0,46.0,-100.00,SE,142,6.0,12.0,97,0.04,,,0.16,0.000000,,2013-09-26 14:32:00,
2013-09-26 06:42:00,47.0,46.0,-100.00,SE,142,6.0,12.0,97,0.04,,,0.16,0.000000,,2013-09-26 14:42:00,
2013-09-26 06:52:00,47.0,46.0,-100.00,SE,142,6.0,12.0,97,0.04,,,0.16,0.000000,,2013-09-26 14:52:00,
2013-09-26 07:22:00,47.0,46.0,-100.00,SE,127,7.0,16.0,96,0.03,,,0.19,0.000000,,2013-09-26 15:22:00,
2013-09-26 07:33:00,47.0,46.0,-100.00,SE,127,7.0,16.0,96,0.03,,,0.19,0.000000,,2013-09-26 15:33:00,
2013-09-26 07:44:00,47.0,46.0,-100.00,SE,127,7.0,16.0,96,0.03,,,0.19,0.000000,,2013-09-26 15:44:00,
2013-09-26 07:53:00,47.0,46.0,-100.00,SE,127,7.0,16.0,96,0.03,,,0.19,0.000000,,2013-09-26 15:53:00,
2013-09-26 08:24:00,46.0,45.0,-100.00,SSE,149,6.0,16.0,95,0.03,,,0.22,4.000000,,2013-09-26 16:24:00,
2013-09-26 08:33:00,46.0,45.0,-100.00,SSE,149,6.0,16.0,95,0.03,,,0.22,4.000000,,2013-09-26 16:33:00,
2013-09-26 08:43:00,46.0,45.0,-100.00,SSE,149,6.0,16.0,95,0.03,,,0.22,4.000000,,2013-09-26 16:43:00,
2013-09-26 08:53:00,46.0,45.0,-100.00,SSE,149,6.0,16.0,95,0.03,,,0.22,4.000000,,2013-09-26 16:53:00,
2013-09-26 09:23:00,47.0,46.0,-100.00,SE,140,8.0,14.0,95,0.00,,,0.22,14.000000,,2013-09-26 17:23:00,
2013-09-26 09:34:00,47.0,46.0,-100.00,SE,140,8.0,14.0,95,0.00,,,0.22,14.000000,,2013-09-26 17:34:00,
2013-09-26 09:43:00,47.0,46.0,-100.00,SE,140,8.0,14.0,95,0.00,,,0.22,14.000000,,2013-09-26 17:43:00,
2013-09-26 09:52:00,47.0,46.0,-100.00,SE,140,8.0,14.0,95,0.00,,,0.22,14.000000,,2013-09-26 17:52:00,
2013-09-26 10:22:00,47.0,46.0,-100.00,SSE,150,6.0,14.0,96,0.02,,,0.24,27.000000,,2013-09-26 18:22:00,
2013-09-26 10:32:00,47.0,46.0,-100.00,SSE,150,6.0,14.0,96,0.02,,,0.24,27.000000,,2013-09-26 18:32:00,
2013-09-26 10:42:00,47.0,46.0,-100.00,SSE,150,6.0,14.0,96,0.02,,,0.24,27.000000,,2013-09-26 18:42:00,
2013-09-26 10:52:00,47.0,46.0,-100.00,SSE,150,6.0,14.0,96,0.02,,,0.24,27.000000,,2013-09-26 18:52:00,
2013-09-26 11:22:00,48.0,47.0,-100.00,SE,138,5.0,11.0,96,0.01,,,0.25,44.000000,,2013-09-26 19:22:00,
2013-09-26 11:32:00,48.0,47.0,-100.00,SE,138,5.0,11.0,96,0.01,,,0.25,44.000000,,2013-09-26 19:32:00,
2013-09-26 11:43:00,48.0,47.0,-100.00,SE,138,5.0,11.0,96,0.01,,,0.25,44.000000,,2013-09-26 19:43:00,
2013-09-26 11:52:00,48.0,47.0,-100.00,SE,138,5.0,11.0,96,0.01,,,0.25,44.000000,,2013-09-26 19:52:00,
2013-09-26 12:22:00,48.0,47.0,-100.00,SE,129,5.0,10.0,95,0.00,,,0.25,71.000000,,2013-09-26 20:22:00,
2013-09-26 12:32:00,48.0,47.0,-100.00,SE,129,5.0,10.0,95,0.00,,,0.25,71.000000,,2013-09-26 20:32:00,
2013-09-26 12:42:00,48.0,47.0,-100.00,SE,129,5.0,10.0,95,0.00,,,0.25,71.000000,,2013-09-26 20:42:00,
2013-09-26 12:52:00,48.0,47.0,-100.00,SE,129,5.0,10.0,95,0.00,,,0.25,71.000000,,2013-09-26 20:52:00,
2013-09-26 13:23:00,48.0,47.0,-100.00,SE,134,7.0,12.0,96,0.01,,,0.26,71.000000,,2013-09-26 21:23:00,
2013-09-26 13:34:00,48.0,47.0,-100.00,SE,134,7.0,12.0,96,0.01,,,0.26,71.000000,,2013-09-26 21:34:00,
2013-09-26 13:44:00,48.0,47.0,-100.00,SE,134,7.0,12.0,96,0.01,,,0.26,71.000000,,2013-09-26 21:44:00,
2013-09-26 13:54:00,48.0,47.0,-100.00,SE,134,7.0,12.0,96,0.01,,,0.26,71.000000,,2013-09-26 21:54:00,
2013-09-26 14:24:00,49.0,48.0,-100.00,ESE,123,6.0,11.0,97,0.03,,,0.29,91.000000,,2013-09-26 22:24:00,
2013-09-26 14:32:00,49.0,48.0,-100.00,ESE,123,6.0,11.0,97,0.03,,,0.29,91.000000,,2013-09-26 22:32:00,
2013-09-26 14:42:00,49.0,48.0,-100.00,ESE,123,6.0,11.0,97,0.03,,,0.29,91.000000,,2013-09-26 22:42:00,
2013-09-26 14:54:00,49.0,48.0,-100.00,ESE,123,6.0,11.0,97,0.03,,,0.29,91.000000,,2013-09-26 22:54:00,
2013-09-26 15:23:00,50.0,49.0,-100.00,SSE,163,5.0,11.0,97,0.01,,,0.30,76.000000,,2013-09-26 23:23:00,
2013-09-26 15:34:00,50.0,49.0,-100.00,SSE,163,5.0,11.0,97,0.01,,,0.30,76.000000,,2013-09-26 23:34:00,
2013-09-26 15:42:00,50.0,49.0,-100.00,SSE,163,5.0,11.0,97,0.01,,,0.30,76.000000,,2013-09-26 23:42:00,
2013-09-26 15:53:00,50.0,49.0,-100.00,SSE,163,5.0,11.0,97,0.01,,,0.30,76.000000,,2013-09-26 23:53:00,
2013-09-26 16:22:00,51.0,49.0,-100.00,SSE,165,6.0,12.0,92,0.00,,,0.30,146.000000,,2013-09-27 00:22:00,
2013-09-26 16:32:00,51.0,49.0,-100.00,SSE,165,6.0,12.0,92,0.00,,,0.30,146.000000,,2013-09-27 00:32:00,
2013-09-26 16:43:00,51.0,49.0,-100.00,SSE,165,6.0,12.0,92,0.00,,,0.30,146.000000,,2013-09-27 00:43:00,
2013-09-26 16:52:00,51.0,49.0,-100.00,SSE,165,6.0,12.0,92,0.00,,,0.30,146.000000,,2013-09-27 00:52:00,
2013-09-26 17:23:00,51.0,48.0,-100.00,South,169,6.0,11.0,88,0.00,,,0.30,106.000000,,2013-09-27 01:23:00,
2013-09-26 17:32:00,51.0,48.0,-100.00,South,169,6.0,11.0,88,0.00,,,0.30,106.000000,,2013-09-27 01:32:00,
2013-09-26 17:42:00,51.0,48.0,-100.00,South,169,6.0,11.0,88,0.00,,,0.30,106.000000,,2013-09-27 01:42:00,
2013-09-26 17:52:00,51.0,48.0,-100.00,South,169,6.0,11.0,88,0.00,,,0.30,106.000000,,2013-09-27 01:52:00,
2013-09-26 18:22:00,49.0,46.0,-100.00,South,184,5.0,12.0,91,0.00,,,0.30,37.000000,,2013-09-27 02:22:00,
2013-09-26 18:32:00,49.0,46.0,-100.00,South,184,5.0,12.0,91,0.00,,,0.30,37.000000,,2013-09-27 02:32:00,
2013-09-26 18:42:00,49.0,46.0,-100.00,South,184,5.0,12.0,91,0.00,,,0.30,37.000000,,2013-09-27 02:42:00,
2013-09-26 18:53:00,49.0,46.0,-100.00,South,184,5.0,12.0,91,0.00,,,0.30,37.000000,,2013-09-27 02:53:00,
2013-09-26 18:55:00,47.0,45.0,-100.00,South,175,5.0,13.0,93,0.00,,,0.30,12.000000,,2013-09-27 02:55:00,
2013-09-26 19:22:00,47.0,45.0,-100.00,South,175,5.0,13.0,93,0.00,,,0.30,12.000000,,2013-09-27 03:22:00,
2013-09-26 19:34:00,47.0,45.0,-100.00,South,175,5.0,13.0,93,0.00,,,0.30,12.000000,,2013-09-27 03:34:00,
2013-09-26 19:44:00,47.0,45.0,-100.00,South,175,5.0,13.0,93,0.00,,,0.30,12.000000,,2013-09-27 03:44:00,
2013-09-26 20:24:00,46.0,44.0,-100.00,SSE,166,4.0,9.0,92,0.00,,,0.30,0.000000,,2013-09-27 04:24:00,
2013-09-26 20:33:00,46.0,44.0,-100.00,SSE,166,4.0,9.0,92,0.00,,,0.30,0.000000,,2013-09-27 04:33:00,
2013-09-26 20:44:00,46.0,44.0,-100.00,SSE,166,4.0,9.0,92,0.00,,,0.30,0.000000,,2013-09-27 04:44:00,
2013-09-26 20:54:00,46.0,44.0,-100.00,SSE,166,4.0,9.0,92,0.00,,,0.30,0.000000,,2013-09-27 04:54:00,
2013-09-26 21:23:00,46.0,44.0,-100.00,SE,145,3.0,8.0,92,0.00,,,0.30,0.000000,,2013-09-27 05:23:00,
2013-09-26 21:34:00,46.0,44.0,-100.00,SE,145,3.0,8.0,92,0.00,,,0.30,0.000000,,2013-09-27 05:34:00,
2013-09-26 21:43:00,46.0,44.0,-100.00,SE,145,3.0,8.0,92,0.00,,,0.30,0.000000,,2013-09-27 05:43:00,
2013-09-26 21:52:00,46.0,44.0,-100.00,SE,145,3.0,8.0,92,0.00,,,0.30,0.000000,,2013-09-27 05:52:00,
2013-09-26 22:22:00,46.0,44.0,-100.00,SE,137,5.0,9.0,93,0.00,,,0.30,0.000000,,2013-09-27 06:22:00,
2013-09-26 22:32:00,46.0,44.0,-100.00,SE,137,5.0,9.0,93,0.00,,,0.30,0.000000,,2013-09-27 06:32:00,
2013-09-26 22:42:00,46.0,44.0,-100.00,SE,137,5.0,9.0,93,0.00,,,0.30,0.000000,,2013-09-27 06:42:00,
2013-09-26 22:52:00,46.0,44.0,-100.00,SE,137,5.0,9.0,93,0.00,,,0.30,0.000000,,2013-09-27 06:52:00,
2013-09-26 23:22:00,46.0,45.0,-100.00,SE,144,6.0,9.0,96,0.00,,,0.30,0.000000,,2013-09-27 07:22:00,
2013-09-26 23:32:00,46.0,45.0,-100.00,SE,144,6.0,9.0,96,0.00,,,0.30,0.000000,,2013-09-27 07:32:00,
2013-09-26 23:43:00,46.0,45.0,-100.00,SE,144,6.0,9.0,96,0.00,,,0.30,0.000000,,2013-09-27 07:43:00,
2013-09-26 23:53:00,46.0,45.0,-100.00,SE,144,6.0,9.0,96,0.00,,,0.30,0.000000,,2013-09-27 07:53:00,